Change the Weather History Date:

Tuesday, November 22, 2011

  Actual Average Record
Temperature  
Mean Temperature 34 °F -  
Max Temperature 43 °F 43 °F - ()
Min Temperature 24 °F 28 °F - ()
Degree Days  
Heating Degree Days 32    
Moisture  
Dew Point 26 °F    
Average Humidity 75    
Maximum Humidity 100    
Minimum Humidity 37    
Precipitation  
Precipitation 0.00 in 0.04 in - ()
Sea Level Pressure  
Sea Level Pressure 30.26 in    
Wind  
Wind Speed 1 mph ()    
Max Wind Speed 7 mph    
Max Gust Speed -    
Visibility 6.5 miles    
Events      
T = Trace of Precipitation, MM = Missing Value Source: Averaged Metar Reports

Daily Weather History Graph

Daily Weather History Graph

Search for Another Location

Airport or City:

Trip Planner

Search our weather history database for the weather conditions in past years. The results will help you decide how hot, cold, wet, or windy it might be!

Date:

Astronomy

Nov. 22, 2011 Rise Set
Actual Time 6:13 AM EET 4:01 PM EET
Civil Twilight 5:44 AM EET 4:31 PM EET
Nautical Twilight 5:11 AM EET 5:04 PM EET
Astronomical Twilight 4:39 AM EET 5:36 PM EET
Moon 2:38 AM EET (11/22) 1:47 PM EET (11/22)
Length of Visible Light 10h 46m
Length of Day
9h 48m
Waning Crescent, 12% of the Moon is Illuminated
Nov 22
Waning Crescent
Nov 25
New
Dec 2
First Quarter
Dec 10
Full
Dec 18
Last Quarter

Hourly Weather History & Observations

Time (EET) Temp. Windchill Dew Point Humidity Pressure Visibility Wind Dir Wind Speed Gust Speed Precip Events Conditions
12:50 AM 30.2 °F - 28.4 °F 93% 30.27 in 6.2 mi Calm Calm - N/A   Partly Cloudy
1:50 AM 28.4 °F - 26.6 °F 93% 30.27 in 6.2 mi Calm Calm - N/A   Scattered Clouds
2:00 AM 29 °F - 28 °F 92%  in 6 mi Calm Calm - -   Partly Cloudy
2:50 AM 32.0 °F 26.4 °F 26.6 °F 80% 30.27 in 6.2 mi SSW 5.8 mph - N/A   Scattered Clouds
3:50 AM 30.2 °F - 26.6 °F 86% 30.27 in 6.2 mi Calm Calm - N/A   Scattered Clouds
4:50 AM 30.2 °F 26.7 °F 26.6 °F 86% 30.27 in 6.2 mi ESE 3.5 mph - N/A   Scattered Clouds
5:50 AM 32.0 °F 25.6 °F 26.6 °F 80% 30.27 in 6.2 mi SE 6.9 mph - N/A   Mostly Cloudy
6:50 AM 32.0 °F - 26.6 °F 80% 30.30 in 6.2 mi Variable 1.2 mph - N/A   Mostly Cloudy
7:50 AM 33.8 °F 30.8 °F 26.6 °F 75% 30.30 in 6.2 mi South 3.5 mph - N/A   Mostly Cloudy
8:00 AM 33 °F - 25 °F 62%  in 6 mi South 3.5 mph - -   Partly Cloudy
8:50 AM 35.6 °F - 26.6 °F 70% 30.33 in 6.2 mi Calm Calm - N/A   Mostly Cloudy
9:50 AM 37.4 °F - 24.8 °F 60% 30.30 in 6.2 mi Variable 1.2 mph - N/A   Mostly Cloudy
10:50 AM 39.2 °F - 26.6 °F 61% 30.27 in 6.2 mi Variable 2.3 mph - N/A   Scattered Clouds
11:50 AM 41.0 °F - 24.8 °F 53% 30.27 in 6.2 mi Variable 2.3 mph - N/A   Scattered Clouds
12:50 PM 42.8 °F - 26.6 °F 53% 30.24 in 6.2 mi Variable 2.3 mph - N/A   Partly Cloudy
1:50 PM 42.8 °F - 26.6 °F 53% 30.21 in 6.2 mi Variable 2.3 mph - N/A   Partly Cloudy
2:00 PM 43 °F - 26 °F 37%  in 6 mi WSW 2.3 mph - -   Scattered Clouds
2:50 PM 42.8 °F - 26.6 °F 53% 30.21 in 6.2 mi Variable 1.2 mph - N/A   Partly Cloudy
3:50 PM 39.2 °F - 26.6 °F 61% 30.21 in - West 2.3 mph - N/A   Clear
4:50 PM 35.6 °F - 26.6 °F 70% 30.21 in - Calm Calm - N/A   Clear
5:50 PM 32.0 °F 26.4 °F 24.8 °F 75% 30.21 in - SE 5.8 mph - N/A   Clear
6:50 PM 32.0 °F - 24.8 °F 75% 30.24 in - Calm Calm - N/A   Clear
7:50 PM 28.4 °F - 24.8 °F 86% 30.24 in - Calm Calm - N/A   Clear
8:00 PM 29 °F - 25 °F 78%  in 12 mi Calm Calm - -  
8:50 PM 26.6 °F - 24.8 °F 93% 30.24 in - Calm Calm - N/A   Clear
9:50 PM 24.8 °F - 24.8 °F 100% 30.24 in - Calm Calm - N/A   Clear
10:50 PM 24.8 °F - 24.8 °F 100% 30.24 in - Calm Calm - N/A   Clear
11:50 PM 26.6 °F - 24.8 °F 93% 30.24 in - Calm Calm - N/A   Clear